Simultaneous Nadir Overpasses (SNOs) Predictions

Prediction of SNOs between AQUA and GOES-15 Satellite Orbit:

Table of predicted SNOs for the next 14.0 days since TLE Epoch: 7/16/2022
Index Date Time (AQUA) AQUA Lat,Lon GOES-15 Lat,Lon Distance(km) Time Diff (sec)
1 07/16/2022 10:07:26 -0.49,-127.13 -0.24,-128.37 141.67 80
2 07/16/2022 22:28:44 -0.60,-132.29 0.26,-128.36 447.99 80
3 07/18/2022 09:54:49 -1.13,-124.05 -0.23,-128.35 487.62 80
4 07/18/2022 22:16:07 0.04,-129.22 0.26,-128.33 101.91 80
5 07/20/2022 22:03:30 0.70,-126.15 0.26,-128.30 244.01 80
6 07/21/2022 10:24:39 0.37,-131.28 -0.28,-128.31 338.71 80
7 07/23/2022 10:12:02 -0.30,-128.21 -0.29,-128.27 6.51 80
8 07/25/2022 09:59:24 -0.94,-125.14 -0.29,-128.23 351.19 80
9 07/25/2022 22:20:42 -0.13,-130.30 0.31,-128.20 239.50 80
10 07/27/2022 22:08:04 0.52,-127.23 0.32,-128.15 104.79 80
11 07/28/2022 10:29:13 0.54,-132.36 -0.34,-128.16 477.42 80
12 07/29/2022 21:55:25 1.13,-124.15 0.31,-128.10 449.03 80
